Погода в Мумбаи

Индия     19°04′57″N   72°53′27″E
темп.,
°C
ветер,
м/с
пор.,
м/с
влажн.,
%
обл.,
%
осадки,
мм/ч
давл.,
гПа
погр.,
м
15 апреля, чт
чт1523:30+29ю33660 0.0 101186
02:30+28зсз01650 0.0 100914
05:30+28сз11670 0.0 101016
08:30+29юв11550 0.0 1012233
11:30+31зюз53460 0.0 1012894
14:30+32з66450 0.0 1008485
17:30+31зсз810470 0.0 1007394
20:30+30зсз33510 0.0 100969
16 апреля, пт
пт1623:30+28сз35590 0.0 1010183
02:30+28ссз34600 0.0 1009195
05:30+27с23630 0.0 1010290
08:30+29ссз23550 0.0 1012618
11:30+31з54430 0.0 1012921
14:30+31з65480 0.0 1009611
17:30+30зсз78550 0.0 1008505
20:30+28з24640 0.0 1011281
17 апреля, сб
сб1723:30+27зсз23650 0.0 1011327
02:30+27сз22650 0.0 1009336
05:30+26с23670 0.0 1010366
08:30+28св12580 0.0 1013469
11:30+32з44410 0.0 1012743
14:30+31з76540 0.0 1010520
17:30+30зсз78590 0.0 1009517
20:30+28з34705 0.0 1011184
18 апреля, вс
вс1823:30+28з34735 0.0 1012376
02:30+27сз23745 0.0 1011357
05:30+27с23740 0.0 1012299
08:30+29ссв34630 0.0 1014603
11:30+33з55470 0.0 1012792
14:30+31з77610 0.0 1009437
17:30+30зсз78610 0.0 1009458
20:30+29з23680 0.0 1011141
19 апреля, пн
пн1923:30+28зсз23720 0.0 1011195
02:30+28сз24730 0.0 1010331
05:30+27ссз117010 0.0 1010243
08:30+29сз22630 0.0 1012626
11:30+31з64550 0.0 1011800
14:30+31з66580 0.0 1009678
17:30+29з566661 0.0 1009627
20:30+28зюз34760 0.0 1010437